Regional Weather Roundup
Issued by NWS

Home | Current Version | Previous Version | Graphics & Text | Print | Product List | Glossary On
Versions: 1 2 3 4 5 6 7 8 9 10 11 12 13 14 15 16 17 18 19 20 21 22 23 24 25 26 27 28 29 30 31 32 33 34 35 36 37 38 39 40 41 42 43 44 45 46 47 48 49 50
000
ASUS43 KIND 221559
RWRIN

WEATHER ROUNDUP FOR INDIANA
NATIONAL WEATHER SERVICE INDIANAPOLIS IN
1100 AM EST WED FEB 22 2017

NOTE: "FAIR" INDICATES FEW OR NO CLOUDS BELOW 12,000 FEET WITH NO
SIGNIFICANT WEATHER AND/OR OBSTRUCTIONS TO VISIBILITY.

* - STATION DOES NOT REPORT WEATHER SUCH AS PRECIPITATION OR FOG.

+ - STATION NOT QUALITY CONTROLLED BY THE NATIONAL WEATHER SERVICE.
    USE DATA WITH CAUTION...ESPECIALLY DEWPOINT AND RELATIVE
    HUMIDITY OBSERVATIONS.

INZ001>003-010>013-019-020-221700-
NORTHWEST INDIANA

CITY           SKY/WX    TMP DP  RH WIND       PRES   REMARKS
GARY /AIRPORT/ CLOUDY    55  54  94 SW7       29.81S FOG
KNOX *+        CLOUDY    55  41  58 S13       29.82S
LA PORTE +     CLOUDY    54  53  97 S9        29.82S FOG
MICHIGAN CITY+ CLOUDY    57  54  88 S9        29.81S
RENSSELAER +   PTSUNNY   54  54 100 S9        29.83S FOG

$$

LMZ046-743>745-221700-
SOUTHERN LAKE MICHIGAN

STATION/POSITION TIME  TEMP    WIND        PRES    WAVE
                       AIR SEA DIR/SP/G            HT
                 (UTC) (F)     (DEG/KT/KT) (MB)    (FT)
BURNS HARBOR     1540   54     190/ 12/ 14 1009.8S
MICHIGAN CITY    1530   55     170/  6/  7   N/A

$$

INZ004-005-014>016-021>024-221700-
NORTH CENTRAL INDIANA

CITY           SKY/WX    TMP DP  RH WIND       PRES   REMARKS
ELKHART        CLOUDY    55  54  94 S8        29.82F FOG
GOSHEN         CLOUDY    58  53  84 SW10      29.83F HAZE
SOUTH BEND     CLOUDY    56  53  90 SW10      29.83R FOG
WARSAW +       CLOUDY    55  52  88 S7        29.84S FOG

$$

INZ006>009-017-018-025>027-221700-
NORTHEAST INDIANA

CITY           SKY/WX    TMP DP  RH WIND       PRES   REMARKS
ANGOLA *+      CLOUDY    55  55 100 S7        29.83F
AUBURN +       CLOUDY    57  54  88 S5        29.85F FOG
FORT WAYNE     CLOUDY    57  53  86 SW9       29.86S FOG
KENDALLVILLE + CLOUDY    56  54  93 S8        29.84F FOG

$$

INZ028-029-035-036-043>045-051>053-221700-
WEST CENTRAL INDIANA

CITY           SKY/WX    TMP DP  RH WIND       PRES   REMARKS
LAFAYETTE      CLOUDY    54  54 100 S6        29.84F FOG
TERRE HAUTE    CLOUDY    56  54  93 S7        29.88F FOG

$$

INZ030>032-037>040-046>048-054>057-064-065-221700-
CENTRAL INDIANA

CITY           SKY/WX    TMP DP  RH WIND       PRES   REMARKS
ANDERSON       CLOUDY    57  55  94 S8        29.89S
CP ATTERBURY + CLOUDY    59  54  82 SW3       29.89F FOG
COLUMBUS       CLOUDY    57  57 100 S7        29.90S FOG
FRANKFORT +    FOG       57  56  97 S7        29.87F VSB 1/2
GREENWOOD *+   CLOUDY    59  57  93 S6        29.89F
INDIANAPOLIS   CLOUDY    59  55  87 S7        29.88F FOG
-EAGLE CREEK   CLOUDY    58  54  86 S5        29.87F FOG
KOKOMO +       CLOUDY    57  56  96 SW9       29.87F FOG
MT COMFORT *+  CLOUDY    57  54  88 S8        29.88F
SHELBYVILLE    CLOUDY    58  54  86 S9        29.88F FOG

$$

INZ033-034-041-042-049-050-058-059-221700-
EAST CENTRAL INDIANA

CITY           SKY/WX    TMP DP  RH WIND       PRES   REMARKS
MUNCIE         CLOUDY    59  54  83 S8        29.87F HAZE

$$

INZ060-061-067>069-081>083-085>088-221700-
SOUTHWEST INDIANA

CITY           SKY/WX    TMP DP  RH WIND       PRES   REMARKS
EVANSVILLE     MOSUNNY   64  56  75 VRB3      29.91F
HUNTINGBURG *+ CLOUDY    62  57  83 VRB3      29.91F

$$

INZ062-063-066-070>080-084-089>092-221700-
SOUTH CENTRAL AND SOUTHEAST INDIANA

CITY           SKY/WX    TMP DP  RH WIND       PRES   REMARKS
BLOOMINGTON    CLOUDY    58  55  90 SW7       29.89F FOG
MADISON *+     CLOUDY    59  54  82 S6        29.93S
SEYMOUR +      CLOUDY    59  57  94 S7        29.91S FOG

$$




USA.gov is the U.S. government's official web portal to all federal, state and local government web resources and services.